Weather Roundup
Issued by NWS

Home | Current Version | Previous Version | Graphics & Text | Print | Product List | Glossary Off
Versions: 1 2 3 4 5 6 7 8 9 10 11 12 13 14 15 16 17 18 19 20 21 22 23 24 25 26 27 28 29 30 31 32 33 34 35 36 37 38 39 40 41 42 43 44 45 46 47 48 49 50

980
NZUS93 KARX 260959
HRRWXR

CURRENT HOURLY OBSERVATIONS ACROSS
MUCH OF THE UPPER MISSISSIPPI VALLEY
NATIONAL WEATHER SERVICE LA CROSSE WI
500 AM CDT TUE JUL 26 2016


...SOUTHEAST MINNESOTA...


CITY           SKY/WX    TMP DP  RH WIND       PRES   REMARKS
ROCHESTER      PTCLDY    63  63 100 SW5       30.09S
ROCHESTER/MAYO FAIR      67  65  91 CALM      30.08S
WINONA         CLEAR     63  63 100 CALM      30.06S
AUSTIN         CLEAR     63  61  94 CALM      30.09S
ALBERT LEA     CLEAR     66  64  94 CALM      30.09S
DODGE CENTER   CLEAR     63  61  94 SW6       30.09R
PRESTON        CLEAR     63  61  94 W5        30.09S
OWATONNA       CLEAR     66  63  88 S5        30.08S
FARIBAULT      CLEAR     64  63  94 CALM      30.07S
$$

...ELSEWHERE IN MINNESOTA...


CITY           SKY/WX    TMP DP  RH WIND       PRES   REMARKS
MINNEAPOLIS    PTCLDY    73  64  73 SW5       30.04S
INTNL FALLS    CLOUDY    61  59  93 CALM      29.96F
DULUTH         PTCLDY    70  65  84 SW9       30.00S
RED WING       CLEAR     64  63  94 CALM      30.04S
REDWOOD FALLS  CLEAR     68  62  81 SW9       30.03S
MANKATO        CLEAR     66  61  82 S5        30.06S
WORTHINGTON    CLEAR     69  64  84 SW10      30.09S
FAIRMONT       CLEAR     64  59  82 S5        30.06F
$$

...SOUTHWEST WISCONSIN...


CITY           SKY/WX    TMP DP  RH WIND       PRES   REMARKS
LA CROSSE      PTCLDY    66  64  93 E3        30.06S
PRAIRIE DU CHI CLEAR     63  62  95 CALM      30.07R
BOSCOBEL       FOG       65  64  97 CALM      30.08R VSB 1/4
LONE ROCK      FOG       62  61  96 CALM      30.08S VSB 1/4
PLATTEVILLE    CLEAR     64  64 100 CALM      30.08S
FORT MC COY    PTCLDY    56  56 100 CALM      30.08S
CAMP DOUGLAS   FOG       55  54  94 CALM      30.07R VSB 1/2
MAUSTON-NEW LI SUNNY     59  59 100 CALM      30.06S FOG
VIROQUA        FAIR      64  63  97 CALM      30.09S
WIS DELLS      NOT AVBL
$$

...ELSEWHERE IN WISCONSIN...


CITY           SKY/WX    TMP DP  RH WIND       PRES   REMARKS
MILWAUKEE      PTCLDY    69  62  78 NW3       30.05R
MADISON        CLEAR     63  62  97 CALM      30.07R FOG
GREEN BAY      CLEAR     61  61 100 CALM      30.04R
EAU CLAIRE     NOT AVBL
BLACK RVR FLS  CLOUDY    56  56 100 CALM      30.06S
MEDFORD        CLEAR     60  60 100 SW3       30.08S
WAUSAU         CLEAR     62  61  96 CALM      30.05F
WIS RAPIDS     CLEAR     60  58  92 CALM      30.08S FOG
MARSHFIELD     CLEAR     64  60  87 W5        30.07S
RICE LAKE        N/A     62  60  95 CALM      30.06F FOG
$$

...NORTHEAST IOWA...


CITY           SKY/WX    TMP DP  RH WIND       PRES   REMARKS
WATERLOO       PTCLDY    64  62  93 CALM      30.07S
DUBUQUE        CLEAR     65  62  90 NE5       30.09R
DECORAH        CLEAR     63  63 100 CALM      30.08S FOG
MASON CITY     CLEAR     63  61  93 S3        30.11S
CHARLES CITY   CLEAR     63  63 100 CALM      30.09S
OELWEIN        CLEAR     66  63  88 N6        30.09S
$$

...ELSEWHERE IN IOWA...


CITY           SKY/WX    TMP DP  RH WIND       PRES   REMARKS
DES MOINES     CLEAR     70  66  87 CALM      30.07S
IOWA CITY      CLEAR     66  64  93 CALM      30.07S
FORT DODGE     CLEAR     64  63  94 CALM      30.10R
MARSHALLTOWN   CLEAR     65  64  97 CALM      30.07S
CEDAR RAPIDS   CLEAR     64  64 100 NW3       30.07R
$$

...NORTHERN ILLINOIS...


CITY           SKY/WX    TMP DP  RH WIND       PRES   REMARKS
CHICAGO-OHARE  PTCLDY    70  64  81 CALM      30.04R
CHICAGO-MIDWAY PTCLDY    75  64  68 CALM      30.04R
MOLINE         PTCLDY    67  63  87 CALM      30.05S
ROCKFORD       PTCLDY    67  65  93 CALM      30.07S
PEORIA         PTCLDY    70  68  93 CALM      30.05R
$$

NOTE: "FAIR" INDICATES FEW OR NO CLOUDS BELOW 12,000 FEET WITH NO
SIGNIFICANT WEATHER AND/OR OBSTRUCTIONS TO VISIBILITY. WIND
SPEEDS ARE IN MILES-PER-HOUR.




USA.gov is the U.S. government's official web portal to all federal, state and local government web resources and services.